Location: Freistadt
(48.5112°N, 14.5013°E)
Time: 09:46:48
(UTC+02:00)

MOZHAYETS 4 - Pass Details

Date: 01 April 2023
Orbit: 657 x 675 km, 98.2° (Epoch: 03 June)

Event Time Altitude Azimuth Distance (km) Brightness Sun altitude
Exits shadow 04:51:29 16° 298° (WNW) 1,721 9.5 -18.0°
Drops below altitude 10° 04:52:59 10° 315° (NW) 2,086 10.1 -17.7°
Sets 04:55:47 0° 333° (NNW) 3,007 11.1 -17.3°
